Find Ekspress-2

NORAD ID: 23319 Int'l Des: 1994-067 Owner: GPKS Country: RU operational
HEOCIRCULAR

Live Position

Loading 3D Globe...

About Ekspress-2

Description loading...

Upcoming Passes

Passes for default location (London). Set your location on the main map for personalized predictions.

Altitude History

Loading altitude history...

Two-Line Element Set

1 23319U 94067A 26106.80547030 .00000116 00000-0 00000+0 0 9993
2 23319 14.5027 2.4793 0005933 271.0597 263.8839 0.99822512114963
Epoch: Apr 16, 2026 • Age: 9 hours

Current Status

Altitude 35893.8 km
Velocity 3.07 km/s
Sub-Earth Point -12.15°S, 42.82°E
Launch Date Oct 13, 1994
Age 31.5 years
Type other

Technical Details

Classification Payload
Mass 2500.00 kg
Dry Mass 2200.00 kg
Total Mass 2500.00 kg
Length 2.00 m
Diameter 2.00 m
Span 27.00 m
Shape Cyl + 2 Pan
Manufacturer NPOPMR
Bus Type Ekspress
Phase Status In Orbit
Owner/State GPKS/RU

Most Searched